Location: Setzu
(39.7231°N, 8.9397°E)
Time: 23:15:03
(UTC+00:00)

Daily predictions for brighter satellites

Satellite Brightness Start Highest point End
(mag) Time Altitude Azimuth Time Altitude Azimuth Time Altitude Azimuth
Cosmos 2360 4.5 19:02:59 10° S 19:08:23 48° ESE 19:13:51 10° NE
CSL-04 Debris 4.3 19:04:40 10° SSE 19:10:05 81° WSW 19:15:31 10° NNW
Cosmos 2098 Rocket 3.9 19:08:16 10° NNW 19:11:06 33° W 19:13:43 10° SSW
SL-4 R/B 3.2 19:07:24 10° NW 19:11:46 39° NNE 19:15:51 10° E
H-2A R/B 2.3 19:07:59 10° NNE 19:11:54 43° E 19:15:50 10° S
ASTRO E2 4.1 19:11:59 10° WSW 19:15:07 23° S 19:18:14 10° SE
Cosmos 2297 Rocket 2.2 19:09:31 10° NNW 19:15:12 76° ENE 19:20:50 10° SSE
Cosmos 1328 Rocket 3.7 19:11:01 10° S 19:15:12 55° E 19:19:26 10° NNE
MetOp-A 3.3 19:12:25 10° SSE 19:16:29 78° ENE 19:20:21 10° N
NOSS 3-2 (C) 4.3 19:13:29 10° NW 19:21:18 88° SW 19:30:07 10° SSE
Meteor 1-5 Rocket 4.5 19:17:26 10° NNW 19:22:46 67° W 19:27:59 10° S
CENTAUR R/B 3.8 19:18:56 10° NW 19:27:14 59° WSW 19:36:03 10° SSE
COBE Rocket 4.0 19:24:07 10° SSE 19:29:13 86° ENE 19:34:14 10° N
Cosmos 1184 Rocket 3.9 19:26:49 10° SSE 19:29:15 23° E 19:31:42 10° NE
Cosmos 968 Rocket 4.4 19:27:43 10° SW 19:32:45 54° WNW 19:37:47 10° N
Cosmos 1151 Rocket 3.9 19:31:29 10° SSW 19:35:38 51° W 19:39:48 10° N
Meteor 1-10 Rocket 4.2 19:30:12 10° S 19:35:44 89° W 19:41:23 10° N
Cosmos 405 2.9 19:36:11 10° N 19:39:34 66° E 19:42:43 12° SSE
Cosmos 389 Rocket 3.5 19:37:09 10° NNE 19:40:17 29° ENE 19:42:29 16° SE
USA 238 DEB 4.2 19:34:03 10° NW 19:41:23 69° WSW 19:49:03 10° SSE
USA 238 4.2 19:34:09 10° NW 19:41:30 69° WSW 19:49:10 10° SSE
Cosmos 1515 3.7 19:38:51 10° S 19:42:33 59° E 19:46:16 10° NNE
Cosmos 1933 Rocket 4.4 19:38:44 10° N 19:42:51 35° ENE 19:46:00 15° SE
EXPRESS MD2 4.5 19:36:48 10° NW 19:43:03 45° NNE 19:46:11 12° E
SPOT 1/Viking Rocket 3.9 19:39:39 12° SE 19:44:17 50° ENE 19:49:17 10° N
Cosmos 1666 Rocket 4.2 19:40:37 10° NNW 19:44:57 58° W 19:49:18 10° S
Resurs 1-3 4.0 19:40:45 10° S 19:45:06 65° W 19:49:28 10° NNW
Meteor 1-27 Rocket 3.8 19:39:25 10° S 19:45:06 68° E 19:50:56 10° NNE
CZ-4B R/B 1.1 19:43:50 10° NNE 19:47:01 75° ESE 19:50:07 10° S
Cosmos 2034 Rocket 4.5 19:44:12 10° SSE 19:50:03 42° E 19:55:56 10° NNE
SJ 16-02 2.0 19:48:22 11° SSE 19:52:01 33° E 19:55:58 10° NE
H-2A R/B 4.3 19:48:21 10° SSW 19:52:14 31° W 19:56:03 10° NW
Cosmos 2278 4.3 19:47:17 10° SSE 19:52:21 35° ESE 19:57:28 10° NE
Cosmos 1340 2.5 19:49:11 10° S 19:52:53 72° E 19:56:37 10° NNE
Cosmos 1633 Rocket 3.6 19:48:52 10° NNW 19:53:10 58° W 19:57:25 10° S
Cosmos 2219 3.2 19:48:43 10° NNW 19:54:23 87° WSW 19:59:14 14° SSE
Cosmos 1315 Rocket 4.1 19:52:32 10° NNW 19:56:21 40° W 20:00:06 10° SSW
Cosmos 2082 4.0 19:55:39 10° NNW 20:01:11 54° ENE 20:04:58 20° SE
Meteor 1-11 Rocket 3.9 19:56:25 10° N 20:02:25 83° W 20:08:15 10° S
ATLAS 5 CENTAUR R/B 4.1 19:58:04 10° WSW 20:03:15 13° SW 20:06:33 10° SSW
Ariane Rocket 3.0 20:00:04 16° SSE 20:04:08 73° ENE 20:09:13 10° N
Cosmos 2263 Rocket 3.3 19:59:20 10° N 20:04:10 29° ENE 20:07:29 17° ESE
Cosmos 1470 Rocket 3.6 20:00:15 10° N 20:04:34 77° W 20:08:22 13° S
Cosmos 1743 2.6 20:03:59 10° N 20:07:46 81° E 20:10:10 21° S
OAO 3 Rocket 3.7 20:03:13 10° W 20:07:53 43° S 20:10:29 23° SE
SPOT 5 4.1 20:06:30 19° ESE 20:09:21 31° ENE 20:13:50 10° N
Terra 3.4 20:09:04 16° E 20:11:06 20° ENE 20:14:33 10° NNE
Resurs 01 Rocket 1.9 20:09:12 14° S 20:12:55 67° WSW 20:17:19 10° NNW
IRAS Rocket 4.5 20:08:13 10° NNE 20:13:50 76° WNW 20:19:26 10° SSW
Aureole 1 Rocket 3.9 20:12:06 10° SW 20:15:10 35° WNW 20:17:58 10° N
Cosmos 1515 Rocket 4.1 20:11:19 10° SSW 20:15:36 58° W 20:19:57 10° N
Cosmos 1809 Rocket 4.5 20:14:34 10° N 20:20:42 68° E 20:24:45 22° SSE
Cosmos 2227 Rocket 3.1 20:16:54 10° NW 20:22:16 45° WSW 20:26:55 13° S
Cosmos 921 Rocket 3.1 20:18:59 10° NNW 20:23:31 72° ENE 20:25:37 30° SSE
Cosmos 1980 Rocket 2.5 20:22:14 10° SSW 20:27:49 70° WNW 20:33:29 10° NNE
CARTOSAT-1 3.5 20:26:14 29° SSE 20:28:23 81° ENE 20:32:42 10° N
SWAS 4.4 20:25:22 10° NNW 20:29:40 72° ENE 20:31:20 36° SE
Cosmos 2228 Rocket 3.2 20:29:01 29° SSE 20:31:14 61° E 20:35:44 10° NNE
Cosmos 1464 Rocket 4.4 20:26:07 10° SSW 20:32:14 62° W 20:38:21 10° N
Cosmos 1869 Rocket 3.7 20:28:31 10° N 20:32:57 58° E 20:34:33 36° SE
Cosmos 1378 3.4 20:34:31 43° ESE 20:34:52 44° E 20:38:23 10° NNE
Cosmos 2344 3.9 20:28:46 10° SW 20:36:20 65° NW 20:43:51 10° NNE
Cosmos 2322 Rocket 3.3 20:36:17 24° ESE 20:36:29 24° ESE 20:40:55 10° NE
Cosmos 1777 Rocket 3.9 20:32:37 15° S 20:37:00 77° ESE 20:42:15 10° NNE
Spot 2 Rocket 3.6 20:35:42 32° SE 20:37:50 58° ENE 20:42:47 10° N
Cosmos 1354 Rocket 4.4 20:33:03 10° SSW 20:38:16 65° WNW 20:43:34 10° NNE
SPOT 3 Rocket 3.5 20:36:10 28° SSE 20:39:00 86° WSW 20:44:10 10° NNW
ISS -1.8 20:37:18 10° NNW 20:40:06 24° NNE 20:41:27 19° ENE
ATLAS 2AS CENTAUR R/B 3.0 20:32:58 10° SW 20:40:48 83° WNW 20:48:28 10° NNE
Okean 1 3.6 20:40:11 22° SSW 20:42:37 65° W 20:46:37 10° N
Meteor 2-4 Rocket 3.9 20:40:22 31° SSE 20:42:56 53° E 20:48:26 10° NNE
Cosmos 773 Rocket 3.9 20:38:00 10° NNW 20:43:14 76° ENE 20:45:19 37° SSE
Cosmos 1536 4.5 20:39:43 10° NNW 20:43:16 30° W 20:46:09 14° SSW
Meteor 1-19 Rocket 4.2 20:40:00 15° SSW 20:44:37 77° W 20:50:03 10° N
USA 245 4.5 20:42:54 26° S 20:46:20 79° WSW 20:52:43 10° NNW
RESURS DK-1 2.7 20:42:44 10° SW 20:46:48 63° WNW 20:50:54 10° NNE
Cosmos 1092 Rocket 4.0 20:43:16 10° N 20:49:25 66° E 20:52:05 34° SSE
Nadezhda 4 Rocket 4.2 20:44:01 10° NNW 20:50:11 69° W 20:54:08 23° S
SL-4 R/B 2.8 20:47:07 10° WNW 20:51:21 41° SW 20:52:09 37° SSW
Cosmos 1634 Rocket 4.0 20:49:59 32° SSE 20:52:55 63° E 20:59:01 10° NNE
Meteor 2-14 Rocket 4.5 20:47:05 10° N 20:53:10 78° W 20:56:34 28° S
ARIANE 5 R/B 3.2 20:53:39 37° E 20:54:28 41° ENE 20:58:42 10° N
Cosmos 1707 Rocket 3.6 20:54:12 50° SE 20:54:57 58° E 20:59:18 10° NNE
Cosmos 44 Rocket 3.7 20:55:47 10° NNW 21:00:20 48° NE 21:01:28 39° E
Cosmos 2227 4.4 21:00:30 10° NNW 21:06:13 60° ENE 21:07:59 42° ESE
NOSS 2-1 (E) 3.5 21:08:10 47° NNE 21:08:10 47° NNE 21:10:32 10° NNE
Cosmos 158 Rocket 3.9 21:02:55 10° NNW 21:08:06 74° ENE 21:09:24 50° SE
ATLAS 3B R/B 3.5 21:02:29 10° NNW 21:09:36 48° NE 21:13:24 28° ESE
USA 81 3.9 21:09:00 47° SSE 21:10:32 77° E 21:15:49 10° N
Cosmos 1975 2.7 21:09:14 10° N 21:13:18 87° W 21:13:33 79° S
ERS-1 Rocket 3.0 21:12:33 47° S 21:13:59 76° WSW 21:19:02 10° NNW
Cosmos 2026 Rocket 3.9 21:08:28 10° N 21:14:40 89° ENE 21:17:00 42° S
SL-16 R/B 2.1 21:13:28 40° S 21:15:33 75° ESE 21:21:14 10° NNE
Cosmos 2237 4.3 21:16:27 48° SE 21:17:07 51° ESE 21:22:39 10° NNE
Helios 1A Rocket 3.9 21:19:01 34° SW 21:19:45 37° W 21:23:30 10° NNW
Meteor 1-4 Rocket 4.3 21:17:35 10° NNE 21:19:36 23° NE 21:19:36 23° NE
Gblst 52 Del rocket 4.3 21:15:23 10° SW 21:22:18 77° SE 21:28:19 10° NE
Cosmos 1538 Rocket 3.9 21:18:14 10° NNW 21:23:28 70° ENE 21:24:18 59° SE
CZ-2C R/B 4.5 21:21:00 10° N 21:25:38 53° WNW 21:27:47 29° SW
Cosmos 1733 Rocket 2.9 21:23:10 10° N 21:27:39 78° E 21:27:44 77° E
Meteor 2-8 Rocket 4.5 21:25:01 36° SSW 21:27:41 76° W 21:33:48 10° N
SJ 16-02 3.8 21:27:21 10° WSW 21:30:38 20° WNW 21:33:56 10° NNW
SAR-Lupe-4 4.3 21:30:36 10° NNE 21:33:21 50° N 21:33:21 50° N
Cosmos 1862 Rocket 3.5 21:37:31 74° WSW 21:37:43 76° W 21:42:13 10° N
H-2A ROCKET BODY 4.4 20:48:30 10° W 21:38:34 48° SSW 21:43:12 36° SSE
Cosmos 2360 Rocket 2.3 21:40:42 54° ESE 21:40:42 54° ESE 21:46:08 10° NNE
Cosmos 1937 Rocket 4.4 21:42:39 34° E 21:42:39 34° E 21:46:34 10° NE
Meteor 1-13 Rocket 4.1 21:44:29 64° SE 21:44:58 68° E 21:50:29 10° NNE
Cosmos 1726 4.2 21:43:24 10° NNE 21:45:09 20° NE 21:45:09 20° NE
SPOT 5 4.3 21:45:43 27° SW 21:47:17 32° W 21:51:55 10° NNW
Cosmos 2263 Rocket 3.0 21:43:01 10° NW 21:48:08 38° WSW 21:49:11 35° SW
Terra 2.6 21:47:57 40° WSW 21:48:32 42° W 21:53:03 10° NNW
Cosmos 1441 Rocket 4.1 21:51:04 47° NNW 21:51:04 47° NNW 21:53:56 10° N
Cosmos 2266 Rocket 4.3 21:44:28 10° N 21:50:30 50° ENE 21:51:20 47° ESE
Cosmos 1346 Rocket 4.3 21:50:23 29° W 21:50:59 31° WNW 21:54:34 10° NNW
Cosmos 2279 Rocket 4.2 21:53:30 43° SW 21:55:29 66° W 22:01:40 10° N
Cosmos 990 Rocket 4.1 21:57:54 61° WSW 21:58:40 72° WNW 22:03:55 10° NNE
USA 215 3.1 21:55:22 10° NE 22:01:56 72° SE 22:03:42 50° SSW
Cosmos 1680 Rocket 3.9 21:58:05 10° N 22:03:15 51° ENE 22:03:26 51° ENE
Cosmos 1066 Rocket 4.4 22:05:06 55° SW 22:06:11 68° W 22:11:52 10° N
ADEOS Rocket 4.4 22:05:31 21° E 22:06:50 23° ENE 22:11:22 10° NNE
Meteor 1-12 Rocket 4.2 22:02:31 10° N 22:08:28 75° E 22:08:54 71° ESE
Cosmos 1818 4.3 22:06:10 10° NNW 22:11:23 43° NE 22:12:08 40° ENE
Cosmos 1898 Rocket 3.4 22:11:50 81° WSW 22:11:59 82° WNW 22:17:20 10° NNE
Iridium 4 Rocket 3.6 22:09:35 10° N 22:13:44 63° NE 22:13:44 63° NE
Cosmos 1900 4.4 22:15:19 78° N 22:15:19 78° N 22:20:09 10° NNE
Okean 1-7 3.6 22:17:25 56° N 22:17:25 56° N 22:20:56 10° N
ISS -0.9 22:13:47 10° WNW 22:14:21 14° WNW 22:14:21 14° WNW
Cosmos 2322 Rocket 3.1 22:18:01 31° WSW 22:20:12 44° WNW 22:25:35 10° N
Okean 3 4.4 22:25:01 47° N 22:25:01 47° N 22:28:05 10° N
Cosmos 2322 4.2 22:25:29 46° E 22:25:29 46° E 22:30:09 10° NE
Cosmos 2333 Rocket 2.2 22:25:18 68° ENE 22:25:18 68° ENE 22:30:32 10° NNE
Cosmos 1844 Rocket 2.5 22:22:24 10° NNW 22:27:56 87° NNE 22:27:56 87° NNE
BREEZE-M DEB (TANK) 3.9 22:30:27 10° WNW 22:31:53 31° WNW 22:31:53 31° WNW
Meteor 1-23 Rocket 4.2 22:34:01 78° WSW 22:34:17 81° W 22:40:09 10° N
USA 267 4.5 22:29:45 11° E 22:35:21 37° NNE 22:41:15 10° NW
ATLAS CENTAUR R/B 2.4 22:33:35 10° NNW 22:37:50 47° NNE 22:37:50 47° NNE
Cosmos 2219 Rocket 2.2 22:44:47 70° ENE 22:44:47 70° ENE 22:49:50 10° NNE
Cosmos 372 Rocket 4.2 22:51:17 67° NNW 22:51:17 67° NNW 22:56:00 10° NNE
Cosmos 1844 3.8 22:45:57 10° NNW 22:51:27 70° W 22:51:27 70° W
ATLAS 3B R/B 3.5 22:53:27 10° NW 23:00:15 39° WSW 23:00:38 39° WSW
ERS-2 4.2 23:05:07 10° N 23:06:53 26° N 23:06:53 26° N
CZ-4C R/B 3.4 23:03:23 10° NNW 23:10:43 60° NE 23:14:18 36° ESE
NOSS 3-1 (C) 4.1 23:03:46 10° NNW 23:11:30 81° NE 23:14:02 51° SE
Cosmos 2237 Rocket 3.4 23:14:56 31° E 23:14:56 31° E 23:18:59 10° NE
COSMOS 2428 2.7 23:17:53 79° NNW 23:17:53 79° NNW 23:23:21 10° NNE
ALOS 2 3.9 23:22:00 34° NW 23:22:00 34° NW 23:24:49 10° NNW
Cosmos 1745 Rocket 4.5 23:18:24 10° N 23:24:24 48° ENE 23:25:01 46° E
Cosmos 2360 Rocket 4.1 23:22:25 17° W 23:24:58 22° NW 23:29:20 10° N
In-Cosmos 22 4.3 23:29:31 68° WNW 23:29:31 68° WNW 23:34:45 10° N
Okean 2 Rocket 4.0 23:24:45 10° N 23:28:05 48° N 23:28:05 48° N
Cosmos 2298 Rocket 4.4 23:34:33 56° ENE 23:34:33 56° ENE 23:39:00 10° NNE
Cosmos 1867 3.9 23:33:44 57° WNW 23:33:51 57° NW 23:39:15 10° NNE
Cosmos 1626 4.2 23:37:36 26° N 23:37:36 26° N 23:39:18 10° N
Nimbus 7 Rocket 4.2 23:30:17 10° NNE 23:36:11 86° WNW 23:36:12 86° W
SL-08 R/B 4.3 23:34:55 10° N 23:41:13 83° W 23:41:27 81° SW
USA 215 4.5 23:38:41 10° NE 23:44:36 38° NNW 23:50:32 10° W
Cosmos 1953 3.9 23:42:16 10° N 23:44:46 32° NNE 23:44:46 32° NNE
Cosmos 2278 Rocket 2.6 23:42:38 10° NNW 23:48:12 54° ENE 23:48:51 51° E
ADEOS Rocket 3.4 23:52:27 46° W 23:52:27 46° W 23:57:37 10° NNW
